Simultaneous Nadir Overpasses (SNOs) Predictions

Prediction of SNOs between METOP-C and LANDSAT-8 Satellite Orbit:

Table of predicted SNOs for the next 14.0 days since TLE Epoch: 9/16/2023
Index Date (METOP-C) Time (METOP-C) Lat,Lon (METOP-C) SZA (METOP-C ) Date (LANDSAT-8) Time (LANDSAT-8) Lat,Lon (LANDSAT-8) SZA (LANDSAT-8 ) Distance(km) Time Diff (sec)
1 09/18/2023 04:37:20 81.21, 151.87 81.54 09/18/2023 04:38:22 81.21, 151.73 81.55 2.43 62
2 09/18/2023 05:27:59 -81.22, -40.43 98.40 09/18/2023 05:27:48 -81.22, -40.33 98.39 1.81 11
3 09/21/2023 00:11:38 81.21,-141.73 82.65 09/21/2023 00:12:37 81.21,-141.69 82.69 0.89 59
4 09/21/2023 01:02:16 -81.23, 26.40 97.24 09/21/2023 01:02:03 -81.23, 26.27 97.26 2.22 13
5 09/23/2023 19:45:56 81.20, -75.42 83.75 09/23/2023 19:46:52 81.21, -75.34 83.79 1.42 56
6 09/23/2023 20:36:34 -81.23, 92.77 96.13 09/23/2023 20:36:18 -81.23, 92.65 96.15 2.02 16
7 09/26/2023 15:20:12 81.21, -8.81 84.89 09/26/2023 15:21:05 81.21, -8.83 84.91 0.42 53
8 09/26/2023 16:10:52 -81.21, 158.67 95.08 09/26/2023 16:10:32 -81.21, 158.80 95.08 2.31 20
9 09/29/2023 10:54:30 81.20, 57.33 85.97 09/29/2023 10:55:19 81.20, 57.46 86.00 2.22 49



Historial Predications of SNOs between METOP-C and LANDSAT-8
